FENGYUN 1C DEB, 30229

Orbit data source: Space-Track

FENGYUN 1C DEB, 30229 is space debris in SSO originally from a launch on Mon, 10 May 1999 UTC launched from the Taiyaun Space Center, China (TSC). Fengyun 1C debris stems from the Chinese weather satellite Fengyun-1C, which was intentionally destroyed by a Chinese anti-satellite missile in 2007. This event dramatically increased the amount of space debris, with thousands of trackable fragments posing hazards to satellites and human spaceflight. The Fengyun 1C debris cloud has become a focal point in discussions about space sustainability and the need for international regulations to prevent the creation of new debris.

Loading next visibility...
Identifier
30229, 1999-025WN
Orbit
SSO
Country
Flag of CNCN / PRC
Related business
Manufacturer
Unknown
Mission
Spacecraft
Bus & Motor
Unknown
Mass
Unknown
Launch date (UTC)
1999-05-10 (27 years ago)
Launch vehicle
Unknown
Launch site
Taiyaun Space Center, China (TSC)
Object type
Payload
Rocket body
Debris
Shape & HBR
Unknown shape, 0.1 m
Radar Cross Section
Small (<0.1 m²)

Expand to show TLE details & history
Last TLE update: 17 hours ago

TLE from 17 hours ago
0 FENGYUN 1C DEB
1 30229U 99025WN  26072.67559634  .00009413  00000-0  18473-2 0  9995
2 30229  99.0494 145.8838 0037911 123.6834  37.0458 14.62488472  2441
Epoch: 2026-03-13T16:12Z
TLE epoch observation values (Epoch: 2026-03-13T16:12:51.523Z)
Latitude
18.75987°
Longitude
-85.55445°
Altitude
666.257 km
Speed
7.537 km/s
True Right ascension
21h 55m 52s
True Declination
18° 39' 15"
Sunlit
Object was in daylight at epoch
Visualization orbit readout
Latitude
Unknown
Longitude
Unknown
Altitude
Unknown
Speed
Unknown
Apparent Right ascension
Unknown
Apparent Declination
Unknown
Sunlit
N/A
Visualization observer readout
Local Sidereal Time
13:16:40
Azimuth
Unknown
Elevation
Unknown
Doppler factor
Unknown
Orbital elements
Apogee altitude
709.036 km
Perigee altitude
655.503 km
Semi-major axis
7,060.406 km
Eccentricity
0.00379
Inclination
99.0494°
RAAN
145.8838°
Arg. of periapsis
123.6834°
True anomaly
37.30852°
Mean anomaly
37.0458°
Eccentric anomaly
37.17706°
Mean motion
3.65846 °/min
Orbital period
98.4 mins
BSTAR
0.0018473
Loading maneuver chart data...
Computing Atmospheric mass density...

Documentation

Showing up to 5 results
|